Powrót do katalogu

ONEWEB-0490

AktywnyŁącznośćPO
NORAD 54113·PAYLOAD·🇬🇧 United Kingdom

Wystrzelony Oct 22, 2022 z Satish Dhawan Space Centre

Loading…

Następne Przeloty (najbliższe 24 godziny)

TLE

ŚwieżeSource: CelesTrak SupGP

Epoka: Sep 14, 2026, 21:49 UTC

1 54113C 22138A   26257.90917083  .00001904  00000+0  47627-2 0  2577
2 54113  87.9113 287.0961 0001978  87.9487 307.9174 13.19722773    10

Śledź ONEWEB-0490 w czasie rzeczywistym z AllMySat

Download on the App Store